Regional Weather Roundup
Issued by NWS Cleveland, OH

Home | Current Version | Previous Version | Graphics & Text | Print | Product List | Glossary On
Versions: 1 2 3 4 5 6 7 8 9 10 11 12 13 14 15 16 17 18 19 20 21 22 23 24 25 26 27 28 29 30 31 32 33 34 35 36 37 38 39 40 41 42 43 44 45 46 47 48 49 50
000
ASUS41 KCLE 030500
RWRCLE
OHIO REGIONAL WEATHER ROUNDUP
NATIONAL WEATHER SERVICE WILMINGTON, OH
100 AM EDT MON AUG 03 2015

NOTE: "FAIR" INDICATES FEW OR NO CLOUDS BELOW 12,000 FEET WITH NO
SIGNIFICANT WEATHER AND/OR OBSTRUCTIONS TO VISIBILITY.

OHZ001>008-015>018-024>027-034-035-043-044-030600-
   NORTHWEST OHIO

CITY           SKY/WX    TMP DP  RH WIND       PRES   REMARKS
DEFIANCE       CLOUDY    70  58  65 N14G23    29.83R
FINDLAY        PTCLDY    77  61  57 SW15      29.79R
TOLEDO EXPRESS LGT RAIN  67  60  78 N15G23    29.85R
TOLEDO EXEC    LGT RAIN  70  57  63 N29G45    29.84R
LIMA           PTCLDY    75  62  64 SW12      29.82R
$$

OHZ009>014-019>023-028>033-038-089-030600-
   NORTHEAST OHIO

CITY           SKY/WX    TMP DP  RH WIND       PRES   REMARKS
CLE-HOPKINS    MOCLDY    77  60  55 SW12G23   29.80R
CLE-LAKEFRONT  PTCLDY    79  59  50 S24G37    29.74R
CUY CO. ARPT   NOT AVBL
LORAIN-ELYRIA  PTCLDY    77  58  51 SW13G22   29.78R
ASHTABULA      MOCLDY    76  61  59 SW14G23   29.77R
AKRON-CANTON   PTCLDY    73  60  63 SW14      29.82F
WOOSTER        NOT AVBL
MANSFIELD      PTCLDY    74  60  61 SW18G26   29.83S
YOUNGSTOWN     MOCLDY    75  62  64 SW16G26   29.80F
$$

OHZ042-051>053-060>062-070>072-077>081-030600-
  SOUTHWEST OHIO

CITY           SKY/WX    TMP DP  RH WIND       PRES   REMARKS
CINC-COVINGTON CLEAR     70  62  76 S7        29.88F
CINC-LUNKEN    CLEAR     67  64  90 CALM      29.87F
HAMILTON       CLEAR     73  61  65 CALM      29.87F
DAYTON         NOT AVBL
WRIGHT-PAT AFB NOT AVBL
DAYTON GENERAL CLEAR     69  60  73 S7        29.86F
WILMINGTON     CLEAR     67  60  78 S7        29.88F
$$

OHZ036-037-039>041-045>050-054>059-063>069-073>076-082>088-030600-
  CENTRAL AND SOUTHEAST OHIO

CITY           SKY/WX    TMP DP  RH WIND       PRES   REMARKS
COLUMBUS       PTCLDY    73  61  65 S10       29.85F
OSU AIRPORT    CLEAR     73  60  63 S12       29.86S
BOLTON FIELD   NOT AVBL
RICKENBACK AFB CLEAR     69  61  76 S7        29.86S
NEWARK         CLEAR     71  61  70 SW5       29.86S
MARION         CLEAR     72  61  68 SW15      29.84R
LANCASTER      CLEAR     72  60  66 VRB5      29.88S
ZANESVILLE     CLEAR     69  60  73 W3        29.88S
NEW PHILLY     CLEAR     72  61  68 S6        29.85F
$$


USA.gov is the U.S. government's official web portal to all federal, state and local government web resources and services.